Flag for Brazil Weather past 2 weeks in Recife, Pernambuco, Brazil

Now
77 °F

Passing clouds.


Feels Like: 78 °F
Forecast: 79 / 84 °F
Wind: 3 mph from Southwest

Location: Recife Aeroporto

Current Time: May 28, 2015 at 11:28:05 PM

Latest Report: May 28, 2015 at 11:00 PM


Visibility: N/A

Pressure: 29.95 "Hg

Humidity: 89%

Dew point: 73 °F

Location of RecifeLocation

Historic Weather in Recife — Graph

°F

Recife temperature yesterday

Maximum temperature yesterday: 86 °F (at 11:00 AM)
Minimum temperature yesterday: 77 °F (at 11:00 PM)
Average temperature yesterday: 82 °F

Past Weeks' High & Low Weather Summary

 TemperatureHumidityPressure
High88 °F (May 17, 12:00 PM)100% (May 19, 3:00 AM)30.04 "Hg (May 19, 3:00 AM)
Low73 °F (May 17, 5:00 AM)62% (May 15, 9:00 AM)29.89 "Hg (May 14, 2:00 AM)
Average81 °F79%29.95 "Hg
* Reported May 13 10:00 PM — May 28 10:00 PM, Recife, Weather by CustomWeather, © 2015

Note: Actual official high and low records may vary slightly from our data, if they occured in-between our weather recording intervals... More about our weather records

Advertising

Recife weather history for previous 24 hours

 ConditionsComfort  
Time TempWeatherWind HumidityBarometerVisibility
10:00 PM
Thu, May 28
81 °FPassing clouds.6 mph74%29.95 "HgN/A
9:00 PM81 °FPassing clouds.8 mph74%29.95 "HgN/A
8:00 PM81 °FPassing clouds.7 mph74%29.92 "HgN/A
7:00 PM81 °FPassing clouds.6 mph74%29.92 "HgN/A
6:00 PM81 °FPassing clouds.9 mph74%29.92 "HgN/A
5:00 PM82 °FScattered clouds.8 mph74%29.89 "HgN/A
4:00 PM82 °FPassing clouds.10 mph74%29.89 "HgN/A
3:00 PM84 °FScattered clouds.10 mph70%29.89 "HgN/A
2:00 PM86 °FScattered clouds.10 mph66%29.89 "HgN/A
1:00 PM86 °FScattered clouds.10 mph66%29.92 "HgN/A
12:00 PM86 °FScattered clouds.12 mph66%29.92 "HgN/A
11:00 AM86 °FScattered clouds.12 mph70%29.95 "HgN/A
10:00 AM82 °FScattered clouds.7 mph84%29.98 "HgN/A
9:00 AM77 °FScattered showers. Partly sunny.6 mph94%29.98 "Hg6 mi
8:00 AM77 °FScattered showers. Broken clouds.6 mph94%29.98 "HgN/A
7:00 AM77 °FLight rain. Broken clouds.5 mph89%29.95 "Hg3 mi
6:00 AM77 °FBroken clouds.5 mph89%29.95 "HgN/A
5:00 AM77 °FPassing clouds.3 mph89%29.92 "HgN/A
4:00 AM79 °FPassing clouds.7 mph89%29.92 "HgN/A
3:00 AM75 °FPassing clouds.2 mph94%29.92 "HgN/A
2:00 AM77 °FPassing clouds.3 mph94%29.92 "HgN/A
1:00 AM77 °FPassing clouds.2 mph94%29.95 "HgN/A
12:00 AM75 °FLight rain. Passing clouds.3 mph94%29.95 "Hg6 mi
11:25 PM
Wed, May 27
77 °FPassing clouds.5 mph89%29.98 "Hg3 mi
11:00 PM77 °FScattered showers. Passing clouds.6 mph89%29.95 "HgN/A
Weather by CustomWeather, © 2015

See weather overviewHow to use our weather pages